This is the latest recevied weather packets stored in our database for station/object N7MLR. If no packets are shown the sender has not sent any weather packets the latest 10 day(s).
| Time | Temp. | Humidity | Pressure | Rain* | Wind** | Luminosity | Snow |
|---|---|---|---|---|---|---|---|
| 1777651909 | 15° C | 99% | 1011.5 hPa | 0 mm | - | 92 W/m² | - |
| 1777651606 | 15° C | 99% | 1011.9 hPa | 0 mm | - | 143 W/m² | - |
| 1777651303 | 15.56° C | 99% | 1011.6 hPa | 0 mm | - | 141 W/m² | - |
| 1777651000 | 16.11° C | 99% | 1011.6 hPa | 0 mm | - | 190 W/m² | - |
| 1777650697 | 15.56° C | 99% | 1011.8 hPa | 0 mm | - | 391 W/m² | - |
| 1777650394 | 15.56° C | 99% | 1011.5 hPa | 0 mm | - | 395 W/m² | - |
| 1777650091 | 15° C | 99% | 1011.3 hPa | 0 mm | - | 180 W/m² | - |
| 1777649789 | 15.56° C | 99% | 1011.3 hPa | 0 mm | - | 168 W/m² | - |
| 1777649485 | 15.56° C | 99% | 1011.3 hPa | 0 mm | - | 344 W/m² | - |
| 1777649182 | 15° C | 99% | 1011.1 hPa | 0 mm | - | 198 W/m² | - |
| 1777648879 | 15° C | 99% | 1011.5 hPa | 0 mm | - | 189 W/m² | - |
| 1777648272 | 14.44° C | 99% | 1009.7 hPa | 3.05 mm | - | 110 W/m² | - |
| 1777647969 | 14.44° C | 99% | 1008.7 hPa | 3.05 mm | - | 64 W/m² | - |
| 1777647665 | 14.44° C | 99% | 1012 hPa | 1.78 mm | - | 19 W/m² | - |
| 1777647361 | 14.44° C | 99% | 1013.1 hPa | 0 mm | - | 6 W/m² | - |
| 1777647060 | 14.44° C | 99% | 1013.2 hPa | 0 mm | - | 5 W/m² | - |
| 1777646755 | 14.44° C | 99% | 1012.5 hPa | 0 mm | - | 11 W/m² | - |
| 1777646450 | 14.44° C | 99% | 1013.1 hPa | 0 mm | - | 10 W/m² | - |
| 1777646147 | 14.44° C | 99% | 1012.4 hPa | 0 mm | - | 17 W/m² | - |
| 1777645844 | 14.44° C | 99% | 1013.1 hPa | 0 mm | - | 16 W/m² | - |
| 1777645542 | 14.44° C | 99% | 1011.7 hPa | 0 mm | - | 28 W/m² | - |
| 1777645238 | 14.44° C | 99% | 1012.7 hPa | 0 mm | - | 24 W/m² | - |
| 1777644933 | 14.44° C | 99% | 1012.2 hPa | 0 mm | - | 41 W/m² | - |
| 1777644631 | 14.44° C | 99% | 1012.4 hPa | 0 mm | - | 43 W/m² | - |
| 1777644327 | 14.44° C | 99% | 1012.2 hPa | 1.27 mm | - | 42 W/m² | - |
* Rain latest hour (hover to see other rain measurements)
** Current wind speed in m/s (hover to see current wind gust speed)